Regional Weather Roundup
Issued by NWS

Home | Current Version | Previous Version | Graphics & Text | Print | Product List | Glossary On
Versions: 1 2 3 4 5 6 7 8 9 10 11 12 13 14 15 16 17 18 19 20 21 22 23 24 25 26 27 28 29 30 31 32 33 34 35 36 37 38 39 40 41 42 43 44 45 46 47 48 49 50
000
ASUS43 KTOP 250659
RWRKS

WEATHER ROUNDUP FOR KANSAS
NATIONAL WEATHER SERVICE GOODLAND KS
200 AM CDT MON MAY 25 2015

NOTE:  "FAIR" INDICATES FEW OR NO CLOUDS BELOW 12,000 FEET WITH NO
SIGNIFICANT WEATHER AND/OR OBSTRUCTIONS TO VISIBILITY.

KSZ001>006-013>018-027>032-041>047-250800-
NORTHWEST KANSAS

CITY           SKY/WX    TMP DP  RH WIND       PRES   REMARKS
GOODLAND       CLOUDY    50  49  96 S9        29.83F
HAYS           CLOUDY    55  48  76 SE10      29.84S THUNDER
HILL CITY      CLOUDY    55  52  89 SE6       29.76F
RUSSELL        LGT RAIN  57  55  93 W6        29.82S
$$

KSZ061>065-074>080-084>089-250800-
SOUTHWEST KANSAS

CITY           SKY/WX    TMP DP  RH WIND       PRES   REMARKS
DODGE CITY     TSTM      55  51  86 SE15      29.82R FOG
ELKHART          N/A     54  48  80 W6          N/A
GARDEN CITY    CLOUDY    55  52  89 SE9       29.76S
GREAT BEND     CLOUDY    57  54  88 N9        29.79F
LIBERAL        CLOUDY    64  59  82 SW16      29.78S
$$

KSZ066>073-081>083-090>101-250800-
SOUTHEAST KANSAS

CITY           SKY/WX    TMP DP  RH WIND       PRES   REMARKS
CHANUTE        CLOUDY    62  61  96 S12       29.86S
COFFEYVILLE    CLOUDY    62  61  96 S7        29.89S
HUTCHINSON     MOCLDY    59  56  89 S10       29.82F
NEWTON         MOCLDY    57  54  88 S9        29.86S
PARSONS        CLOUDY    62  62 100 S9        29.88F
WICHITA INTL   MOCLDY    60  59  96 S10       29.83F
WICHITA JABRA  MOCLDY    60  59  96 S12       29.83F
WICHITA MCCONL CLOUDY    59  59 100 SE9       29.84F
WINFIELD       CLOUDY    60  60 100 SE9       29.86S FOG
$$

KSZ007>012-019>026-033>040-048>060-102>105-250800-
NORTHEAST KANSAS

CITY           SKY/WX    TMP DP  RH WIND       PRES   REMARKS
CONCORDIA      MOCLDY    59  57  93 SW5       29.80S
EMPORIA        CLOUDY    61  59  93 S8        29.83F
LAWRENCE       LGT RAIN  63  60  90 SE5       29.83F
MANHATTAN      CLOUDY    59  58  96 CALM      29.81F
OLATHE IND     LGT RAIN  62  61  96 SW6       29.85R
OLATHE EXE     LGT RAIN  62  61  96 SW6       29.84R
SALINA         MOCLDY    59  56  89 SW5       29.81R
TOPEKA BILLARD CLOUDY    63  61  93 CALM      29.83R
TOPEKA FORBES  CLOUDY    63  60  90 SW8       29.83R
$$


USA.gov is the U.S. government's official web portal to all federal, state and local government web resources and services.